Weather in Nepalganj

Nepal     28°03′35″N   81°37′06″E
temp.,
°C
wind,
m/s
gust,
m/s
humid.,
%
clouds,
%
prec.,
mm/h
press.,
hPa
HPBL,
m
12 may, wed
wed1223:45+28n2244100 0.1 100275
02:45+25nne2358100 1.4 100385
05:45+25ene236292 2.0 100471
08:45+30ese56475 1.3 1005665
11:45+35sse44341 1.3 10031718
14:45+37se342867 0.0 10002815
17:45+37ne242423 0.0 9961777
20:45+28ne3547100 0.0 999213
13 may, thu
thu1323:45+23ssw6877100 3.8 1004335
02:45+23e5776100 2.8 1002243
05:45+25sse4869100 2.8 1003363
08:45+25se5969100 0.1 1006653
11:45+27ese4562100 2.8 1006740
14:45+23ese2383100 6.8 1005238
17:45+24ese57701 8.8 1003413
20:45+22ese367974 0.0 1004184
14 may, fri
fri1423:45+22e117690 0.0 100522
02:45+22sse117899 0.0 100320
05:45+21ese1281100 0.0 100537
08:45+26e22590 0.0 1006542
11:45+31sw11400 0.0 10051270
14:45+34w35310 0.0 10012164
17:45+35w36280 0.0 9992580
20:45+31ene11360 0.0 100014
15 may, sat
sat1523:45+29ne224214 0.0 100123
02:45+27ne224939 0.1 100135
05:45+25ene335690 0.5 100363
08:45+31ese44405 0.0 1004566
11:45+36sse33290 0.0 10031481
14:45+39wsw36220 0.0 10003299
17:45+39nw46181 0.0 9982538
20:45+34nnw332630 0.0 100038
16 may, sun
sun1623:45+31ese112953 0.0 100111
02:45+29e3333100 0.0 100135
05:45+27ese365059 0.0 1002117
08:45+33se5636100 0.0 1004639
11:45+38sse432572 0.0 10031500
14:45+41sw351895 0.0 10002880
17:45+41w241578 0.0 9981973
20:45+36n2219100 0.0 100014